Temperature
12 12 12 12 12 12 12 12 12 12 12 12 12 12 12 12 12 11 12 12 12 12 12 12 12 12 12 12 12 12 13 13 13 13 13 13 13 13 13 12 12 12 12
12 12 12 12 12 12 12 12 12 12 12 12 12 12 11 11 11 11 11 11 11 12 12 12 12 12 12 12 12 12 12 12 12 12 12 12 12 12 12 12 12 12 12
12 12 12 12 12 12 12 11 11 11 11 11 11 11 11 11 11 11 11 11 11 11 11 11 11 11 11 11 11 11 11 11 11 11 12 12 12 12 12 12 12 11 11
12 11 11 11 11 11 11 11 11 11 11 11 11 11 11 11 11 10 10 10 10 10 10 10 11 11 11 11 11 11 11 11 11 11 11 11 11 11 11 11 11 11 11
11 11 11 11 11 11 11 11 11 10 10 10 10 10 10 10 10 10 10 10 10 10 10 10 10 10 10 10 10 10 10 10 10 10 10 10 10 10 10 10 10 10 10
11 11 11 11 11 10 10 10 10 10 10 10 10 10 10 10 10 10 9 9 9 9 9 9 9 9 10 10 10 10 10 10 10 10 9 10 10 10 10 10 10 10 10
10 10 10 10 10 10 10 10 10 9 9 9 9 9 9 9 9 9 9 9 8 9 9 9 9 9 9 9 9 9 9 9 9 9 9 9 9 9 9 9 9 9 9
10 10 10 10 10 9 9 9 9 9 9 8 8 7 8 8 8 8 8 8 8 8 8 8 8 8 8 8 8 8 8 8 8 8 8 8 8 8 8 8 8 9 9
9 9 9 9 9 9 9 9 9 8 8 8 8 7 7 7 7 7 8 7 7 7 7 7 7 7 7 7 7 7 8 8 8 8 8 7 8 8 8 8 8 8 8
9 9 9 9 8 8 8 8 8 8 8 7 7 7 7 6 6 6 7 7 7 7 7 7 7 7 7 7 7 7 7 7 7 7 7 7 7 7 7 7 7 8 8
8 8 8 8 8 8 8 8 8 8 7 7 7 6 6 6 6 5 5 6 6 6 6 6 6 6 6 6 6 6 6 7 7 7 7 7 7 7 7 7 7 7 7
8 8 8 8 8 8 7 7 7 7 7 7 6 6 6 5 5 5 4 4 4 5 5 5 5 5 5 5 5 6 6 6 6 6 6 6 6 6 6 6 7 7 7
7 7 7 7 7 7 7 7 7 7 6 6 6 5 5 5 5 5 4 4 3 4 5 5 5 5 5 5 5 5 5 5 5 5 6 6 6 6 6 6 6 6 6
7 7 7 7 7 7 7 7 6 6 6 6 5 5 5 5 4 4 4 3 3 3 4 4 4 4 4 4 4 4 4 5 5 5 5 5 5 5 5 5 5 5 6
6 6 6 6 6 6 6 6 6 6 5 5 5 5 4 4 4 4 4 3 3 3 3 3 3 4 4 4 4 4 4 4 4 4 4 4 4 5 5 5 5 5 5
6 6 6 6 6 6 6 5 5 5 5 5 4 4 4 4 3 3 3 3 3 2 2 2 3 3 3 3 3 3 3 3 4 4 4 4 4 4 4 4 4 4 4
6 5 5 5 5 5 5 5 5 4 4 4 4 3 3 3 3 3 3 2 2 2 2 2 2 2 2 2 3 3 3 3 3 3 3 3 3 3 3 4 4 4 4
5 5 5 5 5 4 4 4 4 4 4 4 3 3 3 3 3 2 2 2 2 2 1 1 2 2 2 2 2 2 2 2 2 3 3 3 3 3 3 3 3 3 3
5 5 4 4 4 4 4 4 4 3 3 3 3 3 2 2 2 2 1 1 1 1 1 1 1 1 1 1 1 2 2 2 2 2 2 2 2 2 2 2 2 3 3
4 4 4 4 3 3 3 3 3 3 3 3 2 2 2 2 1 1 1 1 1 1 0 0 0 0 0 0 0 1 1 1 1 1 1 1 1 1 2 2 2 2 2
4 4 3 3 3 3 3 3 2 2 2 2 2 2 1 1 1 1 0 0 0 -0 -0 -1 -1 -1 -0 -1 -1 -0 -0 -0 0 1 1 1 1 1 1 1 1 1 2
3 3 3 3 3 3 3 2 2 2 2 1 1 1 1 1 1 0 0 -0 -0 -1 -1 -1 -1 -1 -1 -1 -1 -1 -1 -1 -1 -0 -0 0 0 0 0 1 1 1 1
3 3 3 2 2 2 2 2 1 1 1 1 1 1 1 0 0 -0 -1 -1 -1 -1 -1 -1 -2 -1 -2 -2 -2 -2 -2 -2 -2 -1 -1 -0 -0 -0 0 0 0 0 0
2 2 2 2 2 2 2 1 1 1 1 1 0 0 -0 -0 -0 -1 -1 -1 -1 -1 -1 -2 -2 -2 -2 -2 -2 -2 -2 -2 -2 -2 -2 -2 -1 -1 -0 -0 0 -0 -0
2 2 2 1 1 1 1 1 0 0 0 0 -0 -0 -1 -1 -1 -1 -1 -1 -1 -1 -2 -2 -2 -2 -2 -2 -3 -3 -3 -3 -3 -3 -2 -2 -2 -1 -1 -0 -0 -1 -1
2 1 1 1 1 1 1 0 -0 -0 -0 -0 -1 -1 -1 -1 -1 -2 -2 -2 -2 -2 -2 -2 -2 -2 -2 -3 -3 -3 -3 -3 -4 -4 -3 -3 -3 -3 -3 -1 -1 -1 -1
Wind_Speed
1 1 1 1 2 2 2 3 3 3 3 3 3 3 4 4 4 4 2 1 2 4 5 6 6 6 6 6 6 6 6 6 7 7 8 9 11 11 11 11 11 11 12
1 1 1 1 2 2 3 3 3 3 3 2 3 3 4 4 4 4 4 2 1 3 5 6 6 6 7 7 7 7 7 7 7 7 8 9 10 11 12 12 12 12 13
0 1 1 1 2 3 3 3 3 2 2 2 3 3 3 3 4 4 4 4 3 1 3 5 6 7 7 7 7 7 7 7 8 8 9 9 10 11 12 13 13 14 14
0 1 1 1 2 2 2 2 2 2 2 2 2 3 3 3 3 3 3 3 3 3 2 3 5 6 7 8 8 8 7 7 8 9 9 10 10 11 12 13 14 14 15
1 1 1 1 2 2 2 2 2 2 2 2 2 2 3 3 2 2 2 3 3 3 4 3 4 4 6 7 8 8 8 8 8 9 9 10 11 11 12 13 14 15 16
1 1 1 1 1 1 1 2 2 2 2 2 2 2 2 2 2 2 2 2 2 3 4 4 4 3 4 5 7 8 9 9 9 9 10 11 11 12 13 15 15 15 16
2 2 1 1 1 1 1 2 2 1 1 2 2 2 2 2 2 1 2 2 2 2 3 4 4 4 4 4 5 7 8 9 10 10 11 11 12 12 13 14 15 15 15
1 2 2 1 1 1 1 1 2 1 1 1 2 2 2 2 1 1 2 2 3 2 3 3 4 4 5 5 5 7 9 10 11 11 11 12 12 13 13 14 15 15 15
1 1 2 1 1 1 2 2 2 2 2 1 1 2 2 2 2 3 3 3 3 3 3 3 4 5 6 6 6 6 9 11 13 13 13 13 13 14 14 14 14 14 15
1 1 2 2 2 1 2 2 2 2 2 2 2 2 2 2 3 3 3 3 4 4 5 4 4 5 6 6 6 8 10 11 13 14 14 14 14 14 14 14 14 14 14
2 2 2 2 2 2 2 2 2 2 2 3 2 2 3 3 4 4 5 4 4 4 5 5 5 4 5 6 7 9 10 12 13 14 14 14 14 14 15 15 14 14 14
2 2 2 2 2 2 2 2 2 2 2 3 3 3 3 3 3 4 5 6 6 5 6 5 5 5 5 7 7 10 11 13 13 14 14 14 14 14 14 14 14 14 13
2 2 3 3 2 2 2 2 2 3 3 4 4 3 4 4 3 4 6 6 7 6 5 5 5 5 5 7 7 10 11 12 13 14 15 14 14 14 13 13 13 13 13
3 3 3 3 3 3 3 3 2 3 3 4 4 4 3 3 4 4 4 5 6 6 5 6 5 5 5 7 9 11 11 12 13 14 14 14 13 13 13 13 13 13 13
3 3 3 4 4 3 3 3 2 3 3 4 4 4 4 3 3 4 4 5 5 6 7 5 5 5 6 8 9 11 11 12 13 13 13 13 13 13 13 13 13 13 14
3 3 3 3 3 3 3 3 3 3 3 4 3 4 4 3 3 3 4 4 5 6 7 5 6 7 8 8 10 11 11 12 12 12 13 13 13 13 12 12 13 13 14
3 3 3 3 3 3 3 3 4 3 3 4 4 4 4 4 4 4 4 4 5 6 8 8 7 7 9 9 9 9 10 10 9 11 12 13 13 12 12 13 13 14 14
4 4 3 3 3 4 4 4 4 4 4 4 5 5 5 4 5 4 4 5 5 6 7 9 8 7 9 9 9 10 9 8 9 11 13 13 13 13 13 13 13 13 14
4 4 4 4 4 4 4 5 5 5 5 5 5 5 5 5 5 5 5 6 5 6 6 8 9 7 7 7 9 9 9 8 9 10 11 11 12 13 13 14 13 13 13
5 5 5 5 5 5 5 5 5 5 5 5 6 6 6 6 6 6 6 6 6 6 6 7 8 8 7 7 7 7 8 8 8 8 9 10 11 13 13 13 12 12 12
5 5 5 5 5 5 5 5 5 6 6 6 6 6 6 6 7 7 6 6 6 6 6 7 7 7 7 7 7 7 8 9 9 6 7 7 8 8 9 10 10 11 12
5 5 6 6 6 5 6 8 7 6 6 7 6 6 6 6 7 9 10 9 9 8 8 7 7 8 9 8 8 8 8 9 7 5 7 9 8 8 7 8 9 11 13
6 6 6 6 7 7 7 8 9 7 7 7 7 6 5 5 7 6 8 9 10 11 11 9 9 10 10 9 9 10 9 10 10 8 8 9 7 8 7 9 11 12 13
6 6 6 6 7 7 8 9 9 8 7 7 7 7 7 6 6 6 7 7 8 8 9 8 9 9 9 9 9 10 10 11 10 8 6 7 7 8 8 9 10 11 13
6 6 6 6 7 7 7 8 8 6 7 8 7 7 7 7 8 8 7 7 8 8 8 10 11 11 12 12 10 8 8 8 8 7 5 5 6 8 8 8 7 10 12
6 6 6 6 7 7 7 8 8 5 6 6 6 7 8 9 8 8 7 7 8 8 7 7 8 9 9 9 9 7 7 7 7 5 3 4 5 5 5 5 6 7 9
Wind_Direction
47 32 13 3 342 330 324 321 309 304 296 297 293 291 288 283 280 276 287 330 296 302 300 292 286 282 279 275 272 274 276 272 267 262 260 256 252 248 244 244 246 247 245
28 358 350 353 348 333 325 312 307 297 293 295 295 293 289 285 281 281 285 293 287 296 300 300 299 297 291 281 275 275 277 279 276 272 266 263 259 250 244 244 246 249 249
354 316 313 323 333 324 319 310 307 300 290 289 289 290 292 289 285 283 287 290 295 310 308 310 308 306 303 296 289 287 285 284 283 281 278 274 267 261 253 249 250 251 253
317 292 291 304 324 322 324 311 308 299 294 297 299 298 293 290 286 289 289 295 301 306 317 330 319 316 314 309 301 296 295 296 294 291 286 282 278 270 263 258 254 254 254
274 272 282 307 321 327 325 315 313 303 298 307 304 300 297 289 290 295 293 304 311 313 310 329 334 324 318 314 309 304 302 298 301 299 292 289 284 279 272 267 261 258 257
281 264 253 296 319 306 319 322 317 312 300 313 309 303 295 287 283 287 290 302 321 322 320 319 316 322 325 319 317 312 308 302 301 301 299 295 288 284 280 272 269 265 261
326 291 266 255 279 287 309 321 309 290 324 330 295 302 286 262 264 274 298 297 324 331 335 331 327 323 320 321 326 325 319 310 303 299 298 296 291 288 285 283 276 271 268
340 321 289 260 258 266 277 310 311 278 290 314 289 283 275 248 215 283 293 292 314 331 334 331 329 326 323 320 333 336 330 323 315 306 301 298 296 291 289 288 286 281 278
252 289 306 283 278 271 268 282 297 274 259 261 282 274 273 276 306 258 268 280 305 315 318 323 319 322 324 320 318 327 327 322 316 309 304 301 296 293 291 289 288 287 284
240 255 279 270 267 272 278 282 297 270 251 249 247 261 277 286 268 280 257 270 299 302 306 305 308 316 321 320 321 326 321 317 313 310 306 303 300 296 292 291 289 290 288
255 254 258 259 255 266 280 284 287 263 249 250 249 254 256 259 254 260 272 281 289 288 296 296 296 299 309 314 316 326 323 316 310 307 306 305 305 303 297 295 294 292 294
251 259 253 249 253 258 272 274 275 268 253 248 249 248 253 250 256 261 270 284 287 288 289 284 284 289 297 304 311 324 317 313 311 309 307 306 307 308 308 305 301 297 298
256 257 254 251 253 251 248 257 263 270 262 248 245 249 253 258 264 267 270 278 283 289 281 272 274 283 290 301 306 318 308 308 309 309 308 308 309 310 309 307 306 305 302
265 259 253 250 252 254 245 238 246 257 255 245 245 250 252 259 260 262 264 276 281 280 274 277 280 278 284 298 307 309 301 304 306 308 307 308 309 310 308 306 304 303 304
260 255 250 247 248 250 253 246 244 255 244 240 245 248 250 257 261 265 263 265 272 281 286 284 284 285 292 295 301 300 300 302 303 302 304 305 303 302 302 300 301 300 300
254 253 251 248 250 248 249 248 246 251 244 238 242 246 253 263 261 265 264 265 266 273 279 285 288 294 297 293 295 294 295 299 294 296 301 302 300 298 298 299 299 297 297
248 248 248 250 255 256 254 247 247 250 249 246 241 242 250 261 264 265 266 266 267 270 275 286 288 293 296 296 299 299 298 296 294 295 299 299 298 296 296 298 297 295 294
251 251 249 249 253 257 257 254 251 251 253 254 250 244 250 256 263 267 267 266 268 271 278 286 290 294 296 300 301 300 298 296 292 294 296 296 294 293 295 296 295 292 291
250 247 244 243 249 254 256 255 255 254 256 259 258 254 255 257 264 265 268 269 270 273 274 280 288 293 294 299 302 299 296 295 294 293 294 292 291 291 292 294 293 291 290
247 244 244 244 246 248 252 254 255 256 258 259 260 258 257 255 260 264 266 268 272 274 273 275 281 288 291 298 302 305 306 304 300 297 293 293 291 290 289 289 289 291 291
251 247 247 248 248 246 247 250 253 256 258 261 260 258 258 261 267 267 266 268 269 270 272 274 278 285 289 297 301 306 302 307 302 295 301 298 296 291 291 288 287 290 293
252 247 247 248 249 248 244 244 250 254 256 258 262 262 262 259 261 264 266 269 267 265 269 272 276 279 286 293 297 299 302 304 302 307 306 298 293 288 288 288 289 293 294
254 249 249 250 252 253 247 246 246 251 253 256 260 261 262 262 263 265 267 267 265 264 264 268 272 276 285 290 293 293 293 294 290 299 303 292 294 291 292 289 289 289 290
256 254 253 253 256 257 251 252 251 248 251 254 255 256 259 264 261 266 274 272 272 267 263 263 269 277 281 285 282 283 288 292 289 285 284 285 295 297 300 294 286 284 288
259 257 257 255 256 260 252 252 254 253 251 254 255 253 255 260 261 266 271 273 278 278 270 266 271 277 282 282 283 284 284 286 291 293 287 281 295 305 299 290 286 288 289
261 262 258 256 256 260 253 250 251 249 252 256 256 253 250 256 263 265 265 268 274 282 287 284 277 275 276 276 278 274 276 278 284 289 288 288 296 312 302 291 297 299 295
Height
1527 1526 1526 1525 1525 1524 1524 1523 1523 1522 1522 1522 1521 1521 1520 1520 1519 1518 1518 1517 1517 1517 1516 1516 1516 1516 1515 1515 1515 1515 1515 1514 1514 1514 1514 1514 1514 1514 1514 1514 1513 1513 1513
1525 1524 1524 1523 1523 1522 1522 1521 1521 1520 1520 1519 1519 1518 1517 1517 1516 1515 1515 1514 1513 1513 1513 1513 1512 1512 1512 1511 1511 1511 1510 1510 1510 1510 1510 1510 1510 1510 1510 1510 1510 1509 1509
1523 1522 1522 1521 1521 1520 1519 1519 1518 1518 1517 1516 1516 1515 1515 1514 1513 1512 1512 1511 1511 1510 1509 1509 1509 1508 1508 1508 1507 1507 1506 1506 1506 1505 1505 1505 1505 1505 1505 1505 1505 1505 1505
1520 1520 1520 1519 1518 1518 1517 1517 1516 1515 1515 1514 1513 1512 1512 1511 1510 1510 1509 1508 1508 1507 1506 1505 1505 1505 1504 1504 1503 1503 1502 1501 1501 1501 1501 1501 1501 1500 1500 1500 1500 1500 1500
1518 1518 1517 1517 1516 1515 1515 1514 1513 1513 1512 1511 1511 1510 1509 1508 1507 1507 1506 1505 1504 1504 1503 1502 1501 1501 1500 1500 1499 1498 1497 1497 1496 1496 1496 1496 1496 1495 1495 1495 1495 1495 1495
1516 1516 1515 1514 1514 1513 1512 1512 1511 1510 1510 1509 1508 1507 1506 1505 1505 1504 1503 1503 1502 1501 1500 1499 1498 1497 1496 1496 1495 1494 1493 1492 1492 1491 1491 1491 1491 1490 1490 1490 1490 1490 1490
1513 1513 1512 1512 1511 1511 1510 1509 1509 1508 1507 1506 1505 1504 1503 1503 1502 1501 1501 1500 1499 1498 1497 1496 1495 1494 1493 1492 1491 1490 1489 1488 1488 1487 1486 1486 1485 1485 1485 1484 1484 1484 1484
1510 1510 1509 1509 1508 1508 1508 1507 1506 1505 1504 1504 1503 1503 1502 1502 1500 1499 1498 1497 1496 1495 1494 1493 1492 1491 1490 1488 1487 1486 1485 1484 1483 1482 1482 1481 1481 1480 1480 1479 1479 1479 1479
1507 1507 1506 1506 1506 1505 1505 1504 1503 1503 1502 1502 1501 1502 1502 1500 1498 1497 1495 1495 1494 1492 1491 1490 1489 1487 1486 1485 1483 1482 1481 1480 1479 1478 1477 1476 1476 1475 1474 1474 1473 1473 1473
1504 1504 1503 1503 1503 1502 1502 1501 1500 1500 1499 1499 1499 1498 1499 1497 1497 1495 1494 1492 1491 1490 1488 1487 1485 1484 1482 1481 1479 1478 1477 1476 1475 1473 1472 1471 1470 1470 1469 1468 1468 1467 1467
1501 1501 1500 1500 1500 1499 1498 1498 1497 1496 1496 1496 1496 1495 1495 1494 1494 1493 1491 1489 1488 1487 1485 1484 1482 1480 1479 1477 1476 1474 1473 1471 1470 1468 1467 1466 1465 1464 1463 1462 1462 1461 1461
1498 1498 1497 1497 1496 1496 1495 1495 1494 1493 1493 1492 1492 1492 1492 1491 1490 1490 1488 1486 1485 1483 1482 1480 1479 1477 1475 1473 1472 1470 1468 1467 1465 1464 1462 1461 1460 1459 1457 1456 1456 1456 1456
1495 1495 1494 1493 1493 1492 1492 1491 1490 1490 1489 1489 1488 1488 1488 1488 1487 1486 1485 1483 1481 1479 1478 1477 1475 1474 1472 1470 1468 1466 1464 1462 1461 1459 1457 1456 1455 1453 1452 1451 1450 1450 1449
1492 1491 1491 1490 1489 1489 1488 1487 1486 1486 1485 1485 1485 1485 1484 1484 1483 1482 1481 1480 1478 1476 1474 1473 1472 1470 1468 1466 1464 1462 1459 1458 1456 1454 1453 1451 1449 1448 1447 1446 1445 1444 1443
1489 1488 1488 1487 1486 1485 1484 1483 1483 1482 1481 1481 1481 1481 1480 1480 1479 1478 1477 1477 1476 1473 1470 1469 1468 1466 1464 1462 1460 1457 1455 1453 1451 1449 1448 1446 1444 1443 1441 1440 1439 1438 1438
1486 1485 1484 1483 1482 1482 1481 1480 1479 1478 1477 1476 1476 1476 1476 1475 1475 1474 1473 1472 1472 1470 1467 1465 1464 1462 1460 1457 1455 1453 1451 1448 1446 1444 1443 1441 1439 1437 1436 1435 1433 1432 1431
1483 1482 1481 1480 1479 1478 1477 1476 1475 1473 1473 1472 1472 1472 1472 1471 1470 1470 1469 1468 1467 1466 1463 1460 1459 1457 1455 1453 1451 1448 1446 1444 1442 1439 1437 1435 1434 1432 1430 1429 1428 1426 1425
1479 1478 1477 1476 1475 1474 1473 1472 1471 1470 1469 1468 1468 1467 1467 1466 1466 1465 1464 1463 1463 1461 1459 1456 1454 1452 1451 1449 1446 1443 1441 1439 1437 1434 1432 1430 1428 1426 1425 1423 1422 1420 1419
1476 1475 1474 1473 1472 1471 1470 1469 1467 1466 1465 1464 1463 1462 1462 1461 1461 1460 1459 1459 1458 1457 1455 1452 1449 1448 1446 1444 1441 1439 1437 1434 1432 1429 1427 1425 1423 1421 1419 1417 1416 1414 1413
1472 1471 1470 1469 1468 1467 1466 1465 1464 1462 1461 1460 1459 1458 1457 1457 1456 1456 1455 1454 1453 1452 1450 1448 1445 1443 1441 1439 1437 1434 1431 1429 1426 1424 1422 1420 1418 1416 1414 1412 1410 1408 1407
1468 1467 1466 1465 1464 1463 1462 1461 1459 1458 1457 1456 1455 1454 1453 1452 1451 1451 1450 1449 1448 1447 1445 1443 1441 1439 1437 1435 1433 1430 1427 1424 1422 1419 1417 1415 1412 1410 1408 1406 1404 1403 1401
1464 1463 1462 1461 1460 1459 1458 1457 1455 1454 1453 1452 1451 1450 1449 1448 1447 1446 1445 1444 1444 1442 1441 1439 1437 1435 1432 1431 1429 1426 1423 1420 1417 1416 1413 1410 1408 1405 1403 1401 1399 1397 1395
1459 1458 1457 1456 1455 1454 1453 1452 1451 1450 1449 1448 1447 1445 1444 1443 1443 1442 1441 1439 1438 1437 1437 1435 1432 1430 1428 1426 1424 1422 1419 1417 1413 1411 1408 1404 1402 1400 1398 1395 1393 1391 1389
1455 1453 1452 1451 1450 1449 1448 1447 1446 1445 1444 1443 1442 1441 1440 1439 1438 1437 1436 1434 1433 1432 1431 1429 1427 1425 1424 1422 1420 1418 1415 1411 1409 1407 1404 1400 1397 1394 1392 1390 1388 1386 1383
1450 1448 1447 1446 1445 1444 1443 1442 1441 1440 1439 1438 1438 1437 1436 1435 1434 1433 1431 1430 1428 1427 1426 1424 1422 1420 1418 1417 1415 1413 1410 1407 1403 1401 1399 1396 1392 1389 1386 1384 1382 1380 1378
1445 1443 1442 1441 1440 1439 1438 1437 1437 1435 1434 1434 1433 1432 1432 1431 1430 1428 1427 1425 1423 1422 1420 1418 1416 1415 1413 1411 1409 1408 1405 1403 1399 1396 1394 1392 1389 1386 1381 1378 1377 1375 1372